User: anonymous   Login
Location: NJAA Observatory
(40.6819°N, 74.8979°W)
Time: 06:18:08
(UTC-04:00)
Language:

ALOS - Orbit

View from above orbital plane
View from above orbital plane
View from above satellite
View from above satellite

Ground track
Ground track

The orbit data is extracted from the following two-line orbital elements,

1 28931U 06002A   17232.86650227  .00000152  00000-0  38643-4 0  9998
2 28931  97.8408 256.9765 0002554  98.1649 261.9846 14.62379137616916
Epoch (UTC): 20 August 2017 20:47:45
Eccentricity: 0.0002554
inclination: 97.8408°
perigee height: 684 km
apogee height: 687 km
right ascension of ascending node: 256.9765°
argument of perigee: 98.1649°
revolutions per day: 14.62379137
mean anomaly at epoch: 261.9846°
orbit number at epoch: 61691

The dashed part of the orbit path shows where the satellite is in the earth's shadow,  

DLR